SL-16 DEB, 35420

Orbit data source: Space-Track

SL-16 DEB, 35420 is space debris in SSO originally from a launch on Mon, 10 Dec 2001 UTC launched from the Tyuratam Missile And Space Complex (TTMTR). Debris objects in space refer to the collection of defunct objects orbiting the Earth. Examples of debris include non-operational satellites, rocket bodies, and fragments generated from explosions, collisions, or faulty payload assembly.

Loading next visibility...
Identifier
35420, 2001-056M
Orbit
SSO
Country
Flag of CISCIS
Related business
Manufacturer
Unknown
Mission
Spacecraft
Bus & Motor
Unknown
Mass
Unknown
Launch date (UTC)
2001-12-10 (24 years ago)
Launch vehicle
Unknown
Launch site
Tyuratam Missile And Space Complex (TTMTR)
Object type
Payload
Rocket body
Debris
Shape & HBR
Unknown shape, 0.1 m
Radar Cross Section
Small (<0.1 m²)

Expand to show TLE details & history
Last TLE update: 2 days ago

TLE from 2 days ago
0 SL-16 DEB
1 35420U 01056M   25309.13540924  .00000543  00000-0  58948-3 0  9992
2 35420  99.4276  80.4218 0025025 135.3603  46.3688 13.77445046195923
Epoch: 2025-11-05T03:14Z
TLE epoch observation values (Epoch: 2025-11-05T03:14:59.358Z)
Latitude
-2.03666°
Longitude
166.72549°
Altitude
963.411 km
Speed
7.376 km/s
True Right ascension
17h 20m 20s
True Declination
-2° 01' 29"
Sunlit
Object was in daylight at epoch
Visualization orbit readout
Latitude
Unknown
Longitude
Unknown
Altitude
Unknown
Speed
Unknown
Apparent Right ascension
Unknown
Apparent Declination
Unknown
Sunlit
N/A
Visualization observer readout
Local Sidereal Time
15:58:19
Azimuth
Unknown
Elevation
Unknown
Doppler factor
Unknown
Orbital elements
Apogee altitude
988.603 km
Perigee altitude
951.824 km
Semi-major axis
7,348.351 km
Eccentricity
0.0025
Inclination
99.4276°
RAAN
80.4218°
Arg. of periapsis
135.3603°
True anomaly
46.57681°
Mean anomaly
46.3688°
Eccentric anomaly
46.47276°
Mean motion
3.44555 °/min
Orbital period
104.48 mins
BSTAR
0.00058948
Loading maneuver chart data...
Computing Atmospheric mass density...
Loading historical data...
Loading historical data...
Loading historical data...
Loading historical data...
Loading historical data...
Loading historical data...
Loading historical data...

Documentation

Showing up to 5 results
|